Flag for United Kingdom Weather past 2 weeks in York, England, United Kingdom

Now
63 °F

Partly sunny.


Feels Like: 63 °F
Forecast: 51 / 71 °F
Wind: 9 mph from Southeast

Location: Linton-On-Ouse

Current Time: Sep 2, 2014 at 8:35:22 PM

Latest Report: Sep 2, 2014 at 6:50 PM


Visibility: N/A

Pressure: 30.21 "Hg

Humidity: 73%

Dew point: 54 °F

Location of YorkLocation

Historic Weather in York — Graph

°F

York temperature yesterday

Maximum temperature yesterday: 68 °F (at 1:50 PM)
Minimum temperature yesterday: 55 °F (at 12:50 AM)
Average temperature yesterday: 60 °F

Past Weeks' High & Low Weather Summary

 TemperatureHumidityPressure
High70 °F (Aug 28, 12:50 PM)100% (Aug 21, 6:50 AM)30.24 "Hg (Aug 21, 6:50 AM)
Low43 °F (Aug 24, 4:50 AM)39% (Aug 24, 5:50 PM)29.68 "Hg (Aug 25, 5:50 PM)
Average57 °F74%29.90 "Hg
* Reported Aug 18 6:50 PM — Sep 2 6:50 PM, York, Weather by CustomWeather, © 2014

Note: Actual official high and low records may vary slightly from our data, if they occured in-between our weather recording intervals... More about our weather records

Advertising

York weather history for previous 24 hours

 ConditionsComfort  
Time TempWeatherWind HumidityBarometerVisibility
6:50 PM
Sep 2
63 °FPartly sunny.9 mph73%30.21 "HgN/A
5:50 PM64 °FPartly sunny.8 mph68%30.21 "HgN/A
4:50 PM66 °FPartly sunny.6 mph56%30.21 "HgN/A
3:50 PM66 °FPartly sunny.5 mph56%30.21 "HgN/A
2:50 PM66 °FPartly sunny.5 mph56%30.24 "HgN/A
1:50 PM66 °FScattered clouds.2 mph56%30.24 "HgN/A
12:50 PM64 °FScattered clouds.2 mph60%30.24 "HgN/A
11:50 AM63 °FPassing clouds.3 mph64%30.24 "HgN/A
10:50 AM61 °FPassing clouds.3 mph68%30.24 "HgN/A
9:50 AM59 °FPassing clouds.6 mph72%30.24 "HgN/A
8:50 AM55 °FPassing clouds.7 mph82%30.24 "HgN/A
7:50 AM52 °FPassing clouds.3 mph88%30.24 "HgN/A
6:50 AM50 °FPassing clouds.2 mph94%30.21 "HgN/A
5:50 AM50 °FClear.7 mph94%30.21 "HgN/A
4:50 AM52 °FPassing clouds.8 mph88%30.21 "HgN/A
3:50 AM54 °FOvercast.7 mph88%30.21 "HgN/A
2:50 AM54 °FOvercast.6 mph88%30.21 "HgN/A
1:50 AM54 °FOvercast.6 mph88%30.21 "HgN/A
12:50 AM54 °FPassing clouds.5 mph82%30.18 "HgN/A
11:50 PM
Sep 1
55 °FOvercast.2 mph77%30.18 "HgN/A
10:50 PM57 °FOvercast.1 mph72%30.18 "HgN/A
9:50 PM57 °FOvercast.5 mph72%30.18 "HgN/A
8:50 PM59 °FOvercast.6 mph63%30.15 "HgN/A
Weather by CustomWeather, © 2014

See weather overviewHow to use our weather pages